{"data":{"norad_id":57842,"epoch":"2026-09-20T06:09:23.793696Z","epoch_age_seconds":156227,"freshness":"FRESH","line1":"1 57842U 23141C   26263.25652539  .00000055  00000+0  13539-4 0  9997","line2":"2 57842  53.1580  99.0400 0000907 106.4860 253.6241 15.31700763170131","mean_motion":15.31700763,"eccentricity":9.07e-5,"inclination_deg":53.158,"raan_deg":99.04,"arg_perigee_deg":106.486,"mean_anomaly_deg":253.6241,"bstar":1.3539e-5,"rev_number":17013,"period_min":94.013141129447,"perigee_km":470.11652782612,"apogee_km":471.35891370047,"semimajor_km":6848.8747207633,"source":"CELESTRAK","updated_at":"2026-09-21T09:00:33.711704Z"}}